Tiempo cada hora Cayo Coco

Hoy, 23 Abril, Viernes

Tiempo Temperatura Precipitaciones Viento Presión Humedad
00:00 +26°C° 0 mm 4 mps 762 mmHg 80%
01:00 +26°C° 0 mm 4 mps 761 mmHg 79%
02:00 +26°C° 0 mm 4 mps 761 mmHg 79%
03:00 +26°C° 0 mm 4 mps 761 mmHg 80%
04:00 +26°C° 0 mm 5 mps 761 mmHg 81%
05:00 +27°C° 0 mm 5 mps 761 mmHg 78%
06:00 +27°C° 0 mm 5 mps 762 mmHg 75%
07:00 +28°C° 0 mm 5 mps 762 mmHg 73%
08:00 +29°C° 0 mm 5 mps 762 mmHg 67%
09:00 +30°C° 0 mm 5 mps 762 mmHg 61%
10:00 +32°C° 0 mm 6 mps 763 mmHg 55%
11:00 +33°C° 0 mm 6 mps 762 mmHg 54%
12:00 +33°C° 0 mm 6 mps 762 mmHg 53%
13:00 +33°C° 0 mm 6 mps 762 mmHg 51%
14:00 +33°C° 0 mm 6 mps 762 mmHg 53%
15:00 +33°C° 0 mm 6 mps 761 mmHg 54%
16:00 +32°C° 0 mm 6 mps 761 mmHg 56%
17:00 +30°C° 0 mm 7 mps 761 mmHg 61%
18:00 +29°C° 0 mm 7 mps 761 mmHg 66%
19:00 +28°C° 0 mm 7 mps 762 mmHg 72%
20:00 +28°C° 0 mm 7 mps 762 mmHg 72%
21:00 +28°C° 0 mm 7 mps 762 mmHg 72%
22:00 +27°C° 0 mm 8 mps 762 mmHg 73%
23:00 +27°C° 0 mm 8 mps 762 mmHg 73%

Mañana, 24 Abril, Sábado

Tiempo Temperatura Precipitaciones Viento Presión Humedad
00:00 +27°C° 0 mm 8 mps 761 mmHg 74%
01:00 +27°C° 0 mm 8 mps 761 mmHg 74%
02:00 +27°C° 0 mm 7 mps 761 mmHg 76%
03:00 +27°C° 0 mm 7 mps 761 mmHg 77%
04:00 +26°C° 0 mm 7 mps 760 mmHg 79%
05:00 +27°C° 0.1 mm 7 mps 761 mmHg 74%
06:00 +28°C° 0.1 mm 7 mps 761 mmHg 70%
07:00 +29°C° 0.1 mm 7 mps 761 mmHg 65%
08:00 +30°C° 0.1 mm 7 mps 761 mmHg 60%
09:00 +32°C° 0.1 mm 7 mps 762 mmHg 55%
10:00 +33°C° 0.1 mm 7 mps 762 mmHg 50%
11:00 +34°C° 0 mm 7 mps 762 mmHg 48%
12:00 +34°C° 0 mm 7 mps 761 mmHg 45%
13:00 +35°C° 0 mm 7 mps 761 mmHg 43%
14:00 +34°C° 0 mm 8 mps 760 mmHg 47%
15:00 +33°C° 0 mm 8 mps 760 mmHg 50%
16:00 +33°C° 0 mm 9 mps 759 mmHg 54%
17:00 +31°C° 0 mm 8 mps 760 mmHg 59%
18:00 +29°C° 0 mm 8 mps 760 mmHg 64%
19:00 +28°C° 0 mm 7 mps 760 mmHg 69%
20:00 +28°C° 0 mm 7 mps 760 mmHg 71%
21:00 +28°C° 0 mm 7 mps 761 mmHg 73%
22:00 +27°C° 0 mm 7 mps 761 mmHg 75%
23:00 +27°C° 0 mm 6 mps 761 mmHg 78%

Pasado mañana, 25 Abril, Domingo

Tiempo Temperatura Precipitaciones Viento Presión Humedad
00:00 +26°C° 0 mm 5 mps 760 mmHg 82%
01:00 +26°C° 0 mm 5 mps 760 mmHg 85%
02:00 +26°C° 0 mm 4 mps 760 mmHg 86%
03:00 +25°C° 0 mm 4 mps 760 mmHg 88%
04:00 +25°C° 0 mm 4 mps 760 mmHg 89%
05:00 +26°C° 0 mm 3 mps 760 mmHg 86%
06:00 +26°C° 0 mm 3 mps 760 mmHg 83%
07:00 +27°C° 0 mm 2 mps 761 mmHg 80%
08:00 +29°C° 0 mm 2 mps 761 mmHg 72%
09:00 +30°C° 0 mm 2 mps 761 mmHg 64%
10:00 +32°C° 0 mm 1 mps 761 mmHg 56%
11:00 +34°C° 0 mm 2 mps 761 mmHg 56%
12:00 +34°C° 0 mm 3 mps 761 mmHg 55%
13:00 +34°C° 0 mm 3 mps 760 mmHg 54%
14:00 +34°C° 0 mm 4 mps 760 mmHg 56%
15:00 +33°C° 0 mm 5 mps 759 mmHg 58%
16:00 +33°C° 0 mm 6 mps 759 mmHg 60%
17:00 +30°C° 0.1 mm 5 mps 759 mmHg 65%
18:00 +29°C° 0.1 mm 4 mps 760 mmHg 71%
19:00 +28°C° 0.1 mm 3 mps 760 mmHg 76%
20:00 +28°C° 0.1 mm 4 mps 761 mmHg 79%
21:00 +27°C° 0.1 mm 4 mps 761 mmHg 81%
22:00 +27°C° 0.1 mm 5 mps 761 mmHg 84%
23:00 +27°C° 0.2 mm 4 mps 761 mmHg 86%

26 Abril, Lunes

Tiempo Temperatura Precipitaciones Viento Presión Humedad
00:00 +26°C° 0.2 mm 4 mps 760 mmHg 87%
01:00 +26°C° 0.2 mm 4 mps 760 mmHg 89%
02:00 +26°C° 0.1 mm 4 mps 760 mmHg 89%
03:00 +26°C° 0.1 mm 3 mps 760 mmHg 90%
04:00 +26°C° 0.1 mm 3 mps 760 mmHg 90%
05:00 +26°C° 0 mm 3 mps 760 mmHg 87%
06:00 +27°C° 0 mm 3 mps 761 mmHg 84%
07:00 +27°C° 0 mm 3 mps 761 mmHg 81%
08:00 +29°C° 0 mm 4 mps 761 mmHg 72%
09:00 +30°C° 0 mm 4 mps 762 mmHg 64%
10:00 +32°C° 0 mm 4 mps 762 mmHg 56%
11:00 +33°C° 0 mm 4 mps 762 mmHg 55%
12:00 +33°C° 0 mm 5 mps 761 mmHg 54%
13:00 +33°C° 0 mm 5 mps 761 mmHg 54%
14:00 +33°C° 0 mm 5 mps 761 mmHg 55%
15:00 +33°C° 0 mm 5 mps 760 mmHg 56%
16:00 +32°C° 0 mm 5 mps 760 mmHg 57%
17:00 +30°C° 0 mm 5 mps 760 mmHg 63%
18:00 +29°C° 0 mm 6 mps 761 mmHg 69%
19:00 +28°C° 0 mm 6 mps 761 mmHg 75%
20:00 +28°C° 0 mm 6 mps 761 mmHg 76%
21:00 +28°C° 0 mm 6 mps 761 mmHg 78%
22:00 +27°C° 0 mm 6 mps 762 mmHg 79%
23:00 +27°C° 0 mm 6 mps 761 mmHg 78%

27 Abril, Martes

Tiempo Temperatura Precipitaciones Viento Presión Humedad
00:00 +27°C° 0 mm 7 mps 761 mmHg 78%
01:00 +27°C° 0 mm 7 mps 761 mmHg 77%
02:00 +27°C° 0 mm 7 mps 761 mmHg 76%
03:00 +27°C° 0 mm 7 mps 761 mmHg 75%
04:00 +27°C° 0 mm 7 mps 761 mmHg 74%
05:00 +28°C° 0 mm 7 mps 761 mmHg 72%
06:00 +28°C° 0 mm 7 mps 761 mmHg 69%
07:00 +29°C° 0 mm 7 mps 762 mmHg 66%
08:00 +29°C° 0.1 mm 7 mps 762 mmHg 64%
09:00 +30°C° 0.1 mm 7 mps 762 mmHg 62%
10:00 +30°C° 0.1 mm 7 mps 762 mmHg 60%
11:00 +32°C° 0.1 mm 7 mps 762 mmHg 59%
12:00 +32°C° 0.1 mm 7 mps 762 mmHg 57%
13:00 +33°C° 0.1 mm 7 mps 761 mmHg 55%
14:00 +32°C° 0.1 mm 7 mps 761 mmHg 57%
15:00 +32°C° 0.1 mm 7 mps 761 mmHg 58%
16:00 +32°C° 0.1 mm 7 mps 760 mmHg 59%
17:00 +30°C° 0 mm 7 mps 761 mmHg 64%
18:00 +29°C° 0 mm 7 mps 761 mmHg 68%
19:00 +28°C° 0 mm 7 mps 761 mmHg 73%
20:00 +28°C° 0 mm 8 mps 761 mmHg 73%
21:00 +27°C° 0 mm 8 mps 761 mmHg 74%
22:00 +27°C° 0 mm 9 mps 761 mmHg 75%
23:00 +27°C° 0.1 mm 9 mps 761 mmHg 76%

28 Abril, Miércoles

Tiempo Temperatura Precipitaciones Viento Presión Humedad
00:00 +27°C° 0.1 mm 9 mps 761 mmHg 76%
01:00 +27°C° 0.1 mm 9 mps 761 mmHg 77%
02:00 +27°C° 0.1 mm 8 mps 760 mmHg 77%
03:00 +27°C° 0.1 mm 8 mps 760 mmHg 78%
04:00 +26°C° 0.1 mm 8 mps 760 mmHg 78%
05:00 +27°C° 0.1 mm 8 mps 760 mmHg 76%
06:00 +27°C° 0.1 mm 8 mps 761 mmHg 73%
07:00 +28°C° 0.1 mm 8 mps 761 mmHg 71%
08:00 +29°C° 0.1 mm 8 mps 761 mmHg 66%
09:00 +31°C° 0.1 mm 8 mps 762 mmHg 62%
10:00 +32°C° 0.1 mm 8 mps 762 mmHg 57%
11:00 +32°C° 0.1 mm 8 mps 762 mmHg 55%
12:00 +32°C° 0.1 mm 8 mps 762 mmHg 54%
13:00 +33°C° 0.1 mm 8 mps 761 mmHg 52%
14:00 +32°C° 0 mm 8 mps 761 mmHg 55%
15:00 +32°C° 0 mm 8 mps 761 mmHg 57%
16:00 +31°C° 0 mm 9 mps 760 mmHg 59%
17:00 +29°C° 0 mm 9 mps 760 mmHg 64%
18:00 +29°C° 0 mm 9 mps 760 mmHg 68%
19:00 +28°C° 0 mm 9 mps 761 mmHg 72%
20:00 +27°C° 0 mm 9 mps 761 mmHg 73%
21:00 +27°C° 0 mm 9 mps 761 mmHg 73%
22:00 +27°C° 0 mm 9 mps 761 mmHg 74%
23:00 +27°C° 0.1 mm 8 mps 761 mmHg 75%
Mostrar más

Necesitamos Su Consentimiento

Meteoprog y nuestros Proveedores de Servicios pueden almacenar y acceder a sus datos personales como cookies, identificadores de dispositivo u otras tecnologías similares de su dispositivo y procesar dichos datos para personalizar contenido y anuncios, además de ofrecer funciones de redes sociales y analizar el tráfico.

  • Almacenar y/o acceder a información en su dispositivo

    Se puede almacenar o acceder a cookies, identificadores de dispositivo u otra información de su dispositivo para los fines anteriormente indicados.

  • Anuncios y contenido personalizados, medición de anuncios y contenido, percepciones del público, y desarrollo de productos

    Los anuncios y el contenido pueden personalizarse en base a su perfil. Se pueden añadir más datos para personalizar mejor los anuncios y contenidos. Se puede medir el rendimiento de los anuncios y contenidos. Se puede obtener la percepción sobre el público que ha visto los anuncios y contenidos. Dichos datos pueden usarse para desarrollar o mejorar la experiencia del usuario, sistemas y software.

Al hacer clic en ‘Estoy De Acuerdo’ usted permitirá el uso de las cookies, identificadores de dispositivo, balizas web u otras tecnologías similares indicadas. Su configuración puede cambiarse desde el navegador de su dispositivo.

Para ciertos fines, los intereses legítimos pueden ser considerados por encima del consentimiento. Puede leer más sobre ello en nuestra Política de Privacidad y Cookies.